Weather History for Rogers City, MI

Change the Weather History Date:

Monday, June 10, 2013

  Actual Average (KAPN) Record (KAPN)
Temperature  
Mean Temperature 55 °F 60 °F  
Max Temperature 59 °F 73 °F 93 °F (1973)
Min Temperature 51 °F 48 °F 31 °F (1980)
Degree Days  
Heating Degree Days 10 6  
Month to date heating degree days 70  
Since 1 June heating degree days 70  
Since 1 July heating degree days 8027  
Cooling Degree Days 0 1  
Month to date cooling degree days 10  
Year to date cooling degree days 23  
Since 1 June cooling degree days 10  
Growing Degree Days 5 (Base 50)    
Moisture  
Dew Point 50 °F    
Average Humidity 83    
Maximum Humidity 97    
Minimum Humidity 61    
Precipitation  
Precipitation 0.00 in 0.09 in 1.55 in (1984)
Month to date precipitation 0.86  
Year to date precipitation 10.76  
Sea Level Pressure  
Sea Level Pressure 29.92 in    
Wind  
Wind Speed 6 mph (East)    
Max Wind Speed 13 mph    
Max Gust Speed -    
Visibility 7 miles    
Events Fog , Rain    
T = Trace of Precipitation, MM = Missing Value Source: NWS Daily Summary

Daily Weather History Graph

Daily Weather History Graph

Search for Another Location

Airport:

Trip Planner

Search our weather history database for the weather conditions in past years. The results will help you decide how hot, cold, wet, or windy it might be!

Date:

Astronomy

Jun. 10, 2013 Rise Set
Actual Time 5:46 AM EDT 9:23 PM EDT
Civil Twilight 5:09 AM EDT 10:00 PM EDT
Nautical Twilight 4:19 AM EDT 10:50 PM EDT
Astronomical Twilight 3:13 AM EDT 11:57 PM EDT
Moon 7:38 AM EDT (6/10) 10:43 PM EDT (6/10)
Length of Visible Light 16h 51m
Length of Day
15h 36m
Waxing Crescent, 4% of the Moon is Illuminated
Jun 10
Waxing Crescent
Jun 16
First Quarter
Jun 23
Full
Jun 30
Last Quarter
Jul 8
New

Hourly Weather History & Observations

Time (EDT) Temp. Dew Point Humidity Pressure Visibility Wind Dir Wind Speed Gust Speed Precip Events Conditions
12:15 AM 59.0 °F 48.4 °F 68% 30.06 in 10.0 mi SE 5.8 mph - N/A   Overcast
12:35 AM 59.2 °F 48.6 °F 68% 30.06 in 10.0 mi ESE 6.9 mph - N/A   Overcast
12:55 AM 59.2 °F 47.8 °F 66% 30.05 in 10.0 mi SE 8.1 mph - N/A   Overcast
1:15 AM 59.4 °F 47.3 °F 64% 30.05 in 10.0 mi ESE 5.8 mph - N/A   Overcast
1:35 AM 59.9 °F 46.6 °F 61% 30.05 in 10.0 mi SE 8.1 mph - N/A   Overcast
1:55 AM 59.5 °F 46.4 °F 62% 30.03 in 10.0 mi SE 8.1 mph - N/A   Overcast
2:15 AM 59.2 °F 46.4 °F 63% 30.03 in 10.0 mi SE 8.1 mph - N/A   Overcast
2:35 AM 59.0 °F 46.0 °F 62% 30.02 in 10.0 mi SE 6.9 mph - N/A   Mostly Cloudy
2:55 AM 58.5 °F 46.4 °F 64% 30.01 in 10.0 mi ESE 5.8 mph - N/A   Mostly Cloudy
3:15 AM 58.6 °F 46.2 °F 63% 30.00 in 10.0 mi ESE 6.9 mph - N/A   Mostly Cloudy
3:35 AM 58.3 °F 46.0 °F 64% 30.00 in 10.0 mi ESE 6.9 mph - N/A   Mostly Cloudy
3:55 AM 57.9 °F 46.6 °F 66% 29.99 in 10.0 mi ESE 5.8 mph - N/A   Overcast
4:15 AM 57.6 °F 46.8 °F 67% 29.98 in 10.0 mi ESE 5.8 mph - N/A   Overcast
4:34 AM 57.2 °F 47.3 °F 69% 29.98 in 10.0 mi ESE 4.6 mph - N/A   Mostly Cloudy
4:55 AM 57.2 °F 47.8 °F 71% 29.98 in 10.0 mi ESE 4.6 mph - N/A   Overcast
5:15 AM 57.0 °F 48.2 °F 72% 29.97 in 10.0 mi SE 5.8 mph - N/A   Overcast
5:34 AM 57.2 °F 48.7 °F 73% 29.98 in 10.0 mi SSE 4.6 mph - N/A   Overcast
5:55 AM 57.7 °F 49.5 °F 74% 29.98 in 10.0 mi SSE 5.8 mph - N/A   Overcast
6:15 AM 57.7 °F 50.0 °F 75% 29.97 in 10.0 mi SE 4.6 mph - N/A   Overcast
6:35 AM 58.1 °F 50.0 °F 74% 29.96 in 10.0 mi SE 8.1 mph - N/A   Overcast
6:55 AM 58.1 °F 50.0 °F 74% 29.96 in 10.0 mi ESE 6.9 mph - N/A   Mostly Cloudy
7:15 AM 57.9 °F 49.8 °F 74% 29.97 in 10.0 mi ENE 3.5 mph - N/A   Overcast
7:35 AM 54.9 °F 49.5 °F 82% 29.96 in 10.0 mi ENE 6.9 mph - N/A   Mostly Cloudy
7:55 AM 55.4 °F 49.6 °F 81% 29.96 in 10.0 mi East 6.9 mph - N/A   Scattered Clouds
8:14 AM 55.8 °F 49.5 °F 79% 29.95 in 10.0 mi ENE 3.5 mph - N/A   Mostly Cloudy
8:35 AM 55.9 °F 49.5 °F 79% 29.95 in 10.0 mi East 5.8 mph - N/A   Mostly Cloudy
8:55 AM 55.9 °F 49.3 °F 78% 29.94 in 10.0 mi East 5.8 mph - N/A   Overcast
9:14 AM 56.3 °F 48.7 °F 76% 29.93 in 10.0 mi East 6.9 mph - N/A   Mostly Cloudy
9:35 AM 56.3 °F 48.9 °F 76% 29.93 in 10.0 mi NE 3.5 mph - N/A   Scattered Clouds
9:55 AM 54.5 °F 48.0 °F 79% 29.93 in 10.0 mi NE 3.5 mph - N/A   Mostly Cloudy
10:14 AM 54.7 °F 48.4 °F 79% 29.93 in 10.0 mi ENE 5.8 mph - N/A   Mostly Cloudy
10:35 AM 56.3 °F 49.3 °F 77% 29.92 in 10.0 mi ENE 4.6 mph - N/A   Scattered Clouds
10:55 AM 57.2 °F 49.8 °F 76% 29.92 in 10.0 mi NNE 4.6 mph - N/A   Clear
11:15 AM 57.0 °F 50.0 °F 77% 29.92 in 10.0 mi NNE 3.5 mph - N/A   Mostly Cloudy
11:35 AM 57.4 °F 50.7 °F 78% 29.91 in 10.0 mi NE 4.6 mph - N/A Rain Light Rain
11:54 AM 55.4 °F 50.2 °F 83% 29.91 in 7.0 mi ENE 5.8 mph - N/A   Light Drizzle
12:15 PM 54.5 °F 50.5 °F 86% 29.91 in 7.0 mi ENE 9.2 mph - N/A Rain Light Rain
12:35 PM 52.7 °F 49.8 °F 90% 29.92 in 10.0 mi East 4.6 mph - N/A   Overcast
12:54 PM 52.3 °F 49.5 °F 90% 29.93 in 7.0 mi East 4.6 mph - N/A Rain Rain
1:15 PM 52.9 °F 50.7 °F 92% 29.91 in 4.0 mi Calm Calm - N/A Rain Rain
1:34 PM 55.0 °F 53.1 °F 93% 29.89 in 4.0 mi East 4.6 mph - N/A Rain Light Rain
1:55 PM 54.7 °F 52.7 °F 93% 29.89 in 5.0 mi ENE 4.6 mph - N/A   Light Drizzle
2:15 PM 56.3 °F 54.0 °F 92% 29.89 in 10.0 mi ESE 12.7 mph - N/A   Overcast
2:35 PM 57.2 °F 54.5 °F 91% 29.89 in 10.0 mi ESE 6.9 mph - N/A   Overcast
2:55 PM 56.5 °F 53.6 °F 90% 29.89 in 7.0 mi East 10.4 mph - N/A Rain Light Rain
3:15 PM 55.8 °F 53.6 °F 92% 29.89 in 7.0 mi East 8.1 mph - N/A   Overcast
3:35 PM 55.4 °F 53.2 °F 92% 29.89 in 7.0 mi East 10.4 mph - N/A   Overcast
3:54 PM 55.4 °F 53.4 °F 93% 29.89 in 7.0 mi ESE 11.5 mph - N/A   Overcast
4:15 PM 55.4 °F 53.6 °F 94% 29.88 in 7.0 mi East 8.1 mph - N/A   Overcast
4:35 PM 55.4 °F 53.6 °F 94% 29.87 in 1.8 mi East 6.9 mph - N/A Rain Heavy Rain
4:55 PM 55.0 °F 53.2 °F 94% 29.87 in 2.5 mi ENE 6.9 mph - N/A Rain Rain
5:15 PM 53.8 °F 52.2 °F 94% 29.87 in 1.0 mi NE 4.6 mph - N/A Rain Light Rain
5:35 PM 53.4 °F 52.2 °F 95% 29.87 in 0.8 mi East 4.6 mph - N/A   Light Drizzle
5:55 PM 54.0 °F 52.7 °F 95% 29.86 in 1.0 mi ENE 4.6 mph - N/A   Overcast
6:15 PM 53.2 °F 52.0 °F 95% 29.86 in 0.5 mi NE 3.5 mph - N/A Fog Fog
6:34 PM 52.7 °F 51.3 °F 95% 29.86 in 0.2 mi NNE 3.5 mph - N/A Fog Fog
6:55 PM 51.8 °F 50.9 °F 97% 29.86 in 0.2 mi Calm Calm - N/A Fog Fog
7:14 PM 51.4 °F 50.4 °F 96% 29.86 in 0.2 mi Calm Calm - N/A Fog Fog
7:35 PM 51.4 °F 50.4 °F 96% 29.86 in 0.2 mi North 3.5 mph - N/A Fog Fog
7:54 PM 51.4 °F 50.4 °F 96% 29.86 in 0.2 mi North 3.5 mph - N/A Fog Fog
8:15 PM 51.8 °F 50.9 °F 97% 29.86 in 0.5 mi North 3.5 mph - N/A Fog Fog
8:35 PM 52.0 °F 51.1 °F 97% 29.86 in 0.5 mi Calm Calm - N/A Fog Fog
8:54 PM 52.7 °F 51.8 °F 97% 29.85 in 1.8 mi Calm Calm - N/A   Overcast
9:15 PM 52.7 °F 51.8 °F 97% 29.85 in 2.0 mi Calm Calm - N/A   Overcast
9:35 PM 52.9 °F 52.0 °F 97% 29.85 in 1.8 mi Calm Calm - N/A   Overcast
9:54 PM 52.9 °F 52.0 °F 97% 29.85 in 2.0 mi Calm Calm - N/A   Overcast
10:15 PM 53.2 °F 52.3 °F 97% 29.85 in 1.5 mi Calm Calm - N/A   Overcast
10:34 PM 54.0 °F 53.1 °F 97% 29.85 in 2.0 mi Calm Calm - N/A   Overcast
10:55 PM 54.5 °F 53.6 °F 97% 29.85 in 2.5 mi Calm Calm - N/A   Overcast
11:15 PM 55.0 °F 54.0 °F 96% 29.85 in 3.0 mi Calm Calm - N/A   Overcast
11:35 PM 54.5 °F 53.2 °F 96% 29.85 in 1.8 mi Calm Calm - N/A Rain Rain
11:55 PM 54.5 °F 53.2 °F 96% 29.85 in 1.8 mi Calm Calm - N/A   Heavy Drizzle